{"data":{"norad_id":51886,"intl_designator":"2022-022AL","name":"STARLINK-3565","alt_names":[],"object_type":"PAYLOAD","status":"ACTIVE","operator":null,"country":"US","launch_date":"2022-03-03","launch_site_code":"AFETR","launch_vehicle":null,"mission":null,"orbit_class":"UNKNOWN","rcs_meters":null,"size_class":null,"mass_kg":null,"dimensions":null,"purposes":["comms"],"wikipedia_slug":null,"has_3d_model":false,"image_url":null,"decayed_at":null,"tle_current":{"epoch":"2026-09-19T11:49:47.527680Z","epoch_age_seconds":143222,"freshness":"FRESH","line1":"1 51886U 22022AL  26262.49291120  .00014269  00000+0  84835-3 0  9994","line2":"2 51886  53.1764 207.6367 0001899  70.7355 289.3843 15.11516199252523","mean_motion":15.11516199,"eccentricity":0.0001899,"inclination_deg":53.1764,"raan_deg":207.6367,"arg_perigee_deg":70.7355,"mean_anomaly_deg":289.3843,"bstar":0.00084835,"rev_number":25252,"period_min":95.268578725963,"perigee_km":530.26323652347,"apogee_km":532.88754528954,"semimajor_km":6909.7123909065,"source":"CELESTRAK","updated_at":"2026-09-20T09:00:39.972342Z"}}}